Notices

What's New in latest Release from April 7th, 2021:

- Updated Glossary, including Speed of Maximum Gust, and Total Hourly Precipitation

- Updated national and regional climate services offices contacts and prices information

- Addition of station inventory lists for 1981-2010, 1971-2000, and 1961-1990 Normals.

If you haven't already, please take our survey and provide feedback about our website: https://eccc.sondage-survey.ca/f/LanguageSelection.aspx?s=442ca660-fcf1-47c0-95a9-59707d6fd709

Hourly Data Report for December 25, 2018

CARBERRY CS
MANITOBA
Current Station Operator: ECCC - MSC

49°54'20.900" N
99°21'26.800" W
383.50 m
5010547
71170
WZE

Download Data

Hourly Data (December 2018)
Hourly Data Report for December 25, 2018
TIME
LST
Temp Definition
°C
Dew Point Definition
°C
Rel Hum Definition
%
Precip. Amount Definition
mm

Wind Dir Definition
10's deg

Wind Spd Definition
km/h
Visibility Definition
km
Stn Press Definition
kPa
Hmdx Definition


Wind Chill Definition


Weather Definition


00:00 -12.6 -14.3 86 0.0 35 4   97.82   -15 LegendNANA
01:00 -12.2 -14.1 86 0.0 36 4   97.85   -15 LegendNANA
02:00 -12.1 -13.8 87 0.0 36 7   97.88   -16 LegendNANA
03:00 -11.8 -13.6 87 0.0 1 8   97.95   -17 LegendNANA
04:00 -11.9 -13.7 87 0.0 3 8   97.99   -17 LegendNANA
05:00 -12.1 -13.9 86 0.0 5 8   98.02   -17 LegendNANA
06:00 -12.1 -14.2 85 0.0 6 5   98.03   -15 LegendNANA
07:00 -12.2 -14.4 84 0.0 10 6   98.05   -16 LegendNANA
08:00 -12.5 -14.4 85 0.0 6 6   98.10   -16 LegendNANA
09:00 -12.6 -14.6 85 0.0 4 5   98.18   -16 LegendNANA
10:00 -12.9 -15.3 82 0.0 1 6   98.22   -17 LegendNANA
11:00 -12.7 -15.2 82 0.0 1 5   98.27   -16 LegendNANA
12:00 -12.4 -14.9 81 0.0 3 6   98.26   -16 LegendNANA
13:00 -12.0 -14.9 79 0.0 2 3   98.22   -14 LegendNANA
14:00 -11.9 -15.0 78 0.0 3 4   98.22   -14 LegendNANA
15:00 -12.0 -14.9 79 0.0 4 5   98.27   -15 LegendNANA
16:00 -12.7 -15.2 81 0.0 6 9   98.29   -18 LegendNANA
17:00 -13.5 -15.8 82 0.0 6 10   98.32   -19 LegendNANA
18:00 -13.5 -15.7 83 0.0 10 8   98.31   -19 LegendNANA
19:00 -13.9 -16.1 84 0.0 9 7   98.32   -19 LegendNANA
20:00 -14.0 -16.1 84 0.0 15 5   98.35   -17 LegendNANA
21:00 -14.0 -16.1 84 0.0 13 5   98.34   -17 LegendNANA
22:00 -13.8 -15.9 84 0.0 12 5   98.35   -17 LegendNANA
23:00 -13.7 -15.7 84 0.0 14 8   98.35   -19 LegendNANA

Notes on Data Quality.

Legend

  • E = Estimated
  • M = Missing
  • NA = Not Available*
  • [empty] = Indicates an unobserved value
Date modified: